Location: Newark
(32.8014°N, 52.8711°E)
Time: 11:35:49
(UTC+00:00)

Envisat - Pass Details

Date: 28 January 2020
Orbit: 764 x 766 km, 98.1° (Epoch: 23 February)

Event Time Altitude Azimuth Distance (km) Brightness Sun altitude
Rises 02:42:43 0° 18° (NNE) 3,234 6.3 -9.5°
Reaches altitude 10° 02:45:06 10° 23° (NNE) 2,304 5.6 -9.1°
Maximum altitude 02:50:03 52° 100° (E) 946 4.0 -8.1°
Drops below altitude 10° 02:54:57 10° 176° (S) 2,290 5.8 -7.1°
Sets 02:57:18 0° 181° (S) 3,212 6.4 -6.6°
